Погода в Сосенском

Россия / Калужская область     54°03′34″N   35°57′57″E
темп.,
°C
ветер,
м/с
пор.,
м/с
влажн.,
%
обл.,
%
осадки,
мм/ч
давл.,
гПа
погр.,
м
20 июня, вс
вс2000:00+17ююв22920 0.0 102411
03:00+16ююв22940 0.0 102413
06:00+17юв12910 0.0 102381
09:00+22юв23700 0.0 1023556
12:00+25юв34550 0.0 10231128
15:00+26ююв345132 0.0 10221142
18:00+25юв236495 0.0 1021875
21:00+19юв228594 0.0 102118
21 июня, пн
пн2100:00+17юв229293 0.0 102120
03:00+16вюв2293100 0.0 102113
06:00+17вюв2588100 0.0 1021134
09:00+22вюв357115 0.0 1021420
12:00+26юв455772 0.0 10211003
15:00+27юв565612 0.0 10191059
18:00+26юв366815 0.0 1019900
21:00+21вюв389162 0.0 1020146
22 июня, вт
вт2200:00+19юв2695100 0.0 1020112
03:00+18вюв239473 0.0 102043
06:00+19вюв27919 0.0 1020176
09:00+25юв47684 0.0 1020464
12:00+28юв565649 0.0 1020925
15:00+29юв56555 0.0 10201182
18:00+28юв47675 0.0 1020822
21:00+22юв3690100 0.0 1020104
23 июня, ср
ср2300:00+20юв2492100 0.0 102072
03:00+19юв229367 0.0 102113
06:00+20в25878 0.0 1021128
09:00+25юв35665 0.0 1021461
12:00+29вюв34505 0.0 1021915
15:00+30вюв34465 0.0 10201224
18:00+28вюв35615 0.0 1020550
21:00+23юв228394 0.0 102013
24 июня, чт
чт2400:00+20вюв129013 0.0 102011
03:00+20юв11929 0.0 102111
06:00+21вюв12895 0.0 102175
09:00+27вюв22705 0.0 1021445
12:00+30вюв22545 0.0 10211188
15:00+31ююв225190 0.0 10201418
18:00+29ю2365100 0.0 1020376
21:00+24ю227777 0.0 101915